Regional Weather Roundup
Issued by NWS

Home | Current Version | Previous Version | Graphics & Text | Print | Product List | Glossary On
Versions: 1 2 3 4 5 6 7 8 9 10 11 12 13 14 15 16 17 18 19 20 21 22 23 24 25 26 27 28 29 30 31 32 33 34 35 36 37 38 39 40 41 42 43 44 45 46 47 48 49 50
000
ASUS43 KOAX 030602
RWRNE

WEATHER ROUNDUP FOR NEBRASKA
NATIONAL WEATHER SERVICE OMAHA NE
1200 AM CST SAT DEC 03 2016

NOTES: SATELLITE DATA IS BEING USED TO AUGMENT CLOUD COVER ABOVE
       12000 FEET.
       "FAIR" INDICATES FEW OR NO CLOUDS BELOW 12,000 FEET WITH NO
       SIGNIFICANT WEATHER AND/OR OBSTRUCTIONS TO VISIBILITY.

  * THESE STATIONS DO NOT REPORT WEATHER SUCH AS RAIN...SNOW OR FOG.

NEZ001>004-019>022-054>056-030700-
NEBRASKA PANHANDLE

CITY           SKY/WX    TMP DP  RH WIND       PRES   REMARKS
ALLIANCE       CLEAR     15  11  83 CALM      30.16F
6HR MIN TEMP:  14; 6HR MAX TEMP:  34;

CHADRON        CLEAR     19  14  81 CALM      30.16S
6HR MIN TEMP:  18; 6HR MAX TEMP:  30;

KIMBALL        CLOUDY    26  23  88 S8        30.15S WCI  18
SIDNEY         CLOUDY    19  14  81 SW8       30.18F WCI   9
6HR MIN TEMP:  15; 6HR MAX TEMP:  26;

$$

NEZ057>060-069>072-079>082-030700-
SOUTHWEST NEBRASKA

CITY           SKY/WX    TMP DP  RH WIND       PRES   REMARKS
IMPERIAL       CLOUDY    29  22  75 CALM      30.25S
6HR MIN TEMP:  24; 6HR MAX TEMP:  36;

LEXINGTON      CLOUDY    23  20  89 CALM      30.30R
MCCOOK         CLOUDY    29  22  75 S5        30.29S WCI  24
6HR MIN TEMP:  24; 6HR MAX TEMP:  35;

OGALLALA       CLOUDY    25  22  87 CALM      30.23S
$$

NEZ005>010-023>029-035>040-094-030700-
NORTH CENTRAL NEBRASKA

CITY           SKY/WX    TMP DP  RH WIND       PRES   REMARKS
VALENTINE      CLEAR     20  17  88 CALM      30.21F
6HR MIN TEMP:  19; 6HR MAX TEMP:  31;

AINSWORTH      CLEAR     22  21  93 S7        30.22S WCI  14
BROKEN BOW     CLEAR     19  17  92 CALM      30.26R
6HR MIN TEMP:  19; 6HR MAX TEMP:  30;

O`NEILL        CLEAR     26  24  93 S7        30.26S WCI  18
ORD            CLEAR     21  17  84 CALM      30.27S
6HR MIN TEMP:  19; 6HR MAX TEMP:  27;

THEDFORD       CLEAR     29  22  76 SW12      30.22S WCI  19
$$

NEZ041-046>049-061>064-073>077-083>087-030700-
SOUTH CENTRAL NEBRASKA

CITY           SKY/WX    TMP DP  RH WIND       PRES   REMARKS
GRAND ISLAND   CLEAR     25  23  92 S6        30.32R WCI  18
6HR MIN TEMP:  21; 6HR MAX TEMP:  31;

AURORA         CLOUDY    24  23  93 S6        30.32R WCI  17
HASTINGS       PTCLDY    26  22  84 S6        30.33R WCI  19
6HR MIN TEMP:  23; 6HR MAX TEMP:  33;

HEBRON         CLOUDY    23  20  89 CALM      30.36R
HOLDREGE       CLOUDY    29  24  81 S7        30.30S WCI  21
KEARNEY *      CLEAR     25  19  80 SW6       30.31R WCI  18
YORK           PTCLDY    25  25 100 S7        30.34R WCI  17
$$

NEZ011>018-030>034-042>045-030700-
NORTHEAST NEBRASKA

CITY           SKY/WX    TMP DP  RH WIND       PRES   REMARKS
NORFOLK        CLEAR     24  21  88 S5        30.30R WCI  18
6HR MIN TEMP:  20; 6HR MAX TEMP:  30;

ALBION         PTCLDY    23  21  92 CALM      30.30R
BLAIR          PTCLDY    29  27  90 CALM      30.32S
FREMONT        PTCLDY    24  24  97 CALM      30.33S
TEKAMAH        CLEAR     27  24  89 CALM      30.34R
6HR MIN TEMP:  27; 6HR MAX TEMP:  37;

WAYNE          CLEAR     20  18  93 S3        30.31R
$$

NEZ050>053-065>068-078-088>093-030700-
SOUTHEAST NEBRASKA

CITY           SKY/WX    TMP DP  RH WIND       PRES   REMARKS
LINCOLN        PTCLDY    24  22  91 CALM      30.37R
6HR MIN TEMP:  23; 6HR MAX TEMP:  34;

OMAHA EPPLEY   MOCLDY    28  22  78 CALM      30.34S
6HR MIN TEMP:  27; 6HR MAX TEMP:  37;

BEATRICE       PTCLDY    29  26  88 S5        30.37R WCI  24
NEBRASKA CITY  PTCLDY    29  25  84 S5        30.36R WCI  24
PLATTSMOUTH    CLEAR     30  25  80 S6        30.36R WCI  24
$$

NEZ044-045-051>053-067-030700-
OMAHA AREA

CITY           SKY/WX    TMP DP  RH WIND       PRES   REMARKS
OMAHA EPPLEY   MOCLDY    28  22  78 CALM      30.34S
6HR MIN TEMP:  27; 6HR MAX TEMP:  37;

BLAIR          PTCLDY    29  27  90 CALM      30.32S
FREMONT        PTCLDY    24  24  97 CALM      30.33S
MILLARD        CLOUDY    28  26  93 CALM      30.34S
OFFUTT AFB     CLEAR     22  21  99 S3        30.35R
PLATTSMOUTH    CLEAR     30  25  80 S6        30.36R WCI  24
WAHOO          FAIR      23  21  92 CALM      30.34S
$$




USA.gov is the U.S. government's official web portal to all federal, state and local government web resources and services.